This is the latest recevied weather packets stored in our database for station/object SV9TNF-51. If no packets are shown the sender has not sent any weather packets the latest 10 day(s).
| Time | Temp. | Humidity | Pressure | Rain* | Wind** | Luminosity | Snow |
|---|---|---|---|---|---|---|---|
| 1787894813 | 29.44° C | 48% | 1011.9 hPa | 0 mm | 0.89 m/s, 138° | - | - |
| 1787894513 | 28.89° C | 47% | 1011.9 hPa | 0 mm | 2.24 m/s, 128° | - | - |
| 1787894212 | 28.33° C | 49% | 1011.9 hPa | 0 mm | 0.89 m/s, 131° | - | - |
| 1787893912 | 28.33° C | 50% | 1011.9 hPa | 0 mm | 0.89 m/s, 134° | - | - |
| 1787893612 | 28.33° C | 50% | 1011.9 hPa | 0 mm | 2.68 m/s, 128° | - | - |
| 1787893312 | 28.33° C | 51% | 1011.9 hPa | 0 mm | 0 m/s | - | - |
| 1787893013 | 27.78° C | 52% | 1011.9 hPa | 0 mm | 0 m/s | - | - |
| 1787892712 | 27.78° C | 53% | 1011.9 hPa | 0 mm | 3.13 m/s, 166° | - | - |
| 1787892412 | 26.67° C | 53% | 1011.9 hPa | 0 mm | 4.47 m/s, 0° | - | - |
| 1787892112 | 26.67° C | 54% | 1011.9 hPa | 0 mm | 2.24 m/s, 43° | - | - |
| 1787891812 | 26.67° C | 55% | 1011.9 hPa | 0 mm | 3.58 m/s, 43° | - | - |
| 1787891512 | 26.67° C | 56% | 1011.9 hPa | 0 mm | 1.34 m/s, 146° | - | - |
| 1787891212 | 26.67° C | 57% | 1011.9 hPa | 0 mm | 0 m/s | - | - |
| 1787890911 | 26.67° C | 57% | 1011.9 hPa | 0 mm | 0.89 m/s, 128° | - | - |
| 1787890611 | 26.67° C | 57% | 1011.9 hPa | 0 mm | 3.58 m/s, 340° | - | - |
| 1787890311 | 26.67° C | 56% | 1011.9 hPa | 0 mm | 4.92 m/s, 349° | - | - |
| 1787890011 | 26.67° C | 55% | 1011.9 hPa | 0 mm | 3.13 m/s, 99° | - | - |
| 1787889711 | 26.67° C | 54% | 1011.9 hPa | 0 mm | 1.34 m/s, 141° | - | - |
| 1787889411 | 26.67° C | 56% | 1011.9 hPa | 0 mm | 2.24 m/s, 321° | - | - |
| 1787889111 | 26.67° C | 55% | 1011.9 hPa | 0 mm | 1.79 m/s, 136° | - | - |
| 1787888811 | 26.67° C | 55% | 1011.9 hPa | 0 mm | 4.92 m/s, 357° | - | - |
| 1787888511 | 26.67° C | 55% | 1011.9 hPa | 0 mm | 4.02 m/s, 40° | - | - |
| 1787888210 | 26.67° C | 55% | 1011.9 hPa | 0 mm | 4.02 m/s, 286° | - | - |
| 1787887910 | 26.67° C | 57% | 1011.9 hPa | 0 mm | 4.47 m/s, 321° | - | - |
| 1787887610 | 26.67° C | 58% | 1011.9 hPa | 0 mm | 6.26 m/s, 336° | - | - |
* Rain latest hour (hover to see other rain measurements)
** Current wind speed in m/s (hover to see current wind gust speed)